Date String (YYYY-MM-DD hh:mm:ss) UTC,Instrument flags,absolute air pressure of the measurement (hPa),sample flow rate (lpm),inlet stack bypass flow (lpm),air temperature of the measurement (°C),ambient temperature measured by the external sensor (°C),aerosol sample conditioner tube jacket temperature (°C),OPC LED temperature (°C),internal box temperature (°C),relative humidity of the measurement (%),span deviation,mass concentration of particles derived from Lorenz-Mie calculation of OPC scattering (μg/m³),mass concentration of particles derived from Lorenz-Mie calculation of OPC scattering (μg/m³),mass concentration of particles derived from Lorenz-Mie calculation of OPC scattering (μg/m³)
DateTimeUTC,F1_M11,P_M11,Q1_M11,Q2_M11,T1_M11,T2_M11,T3_M11,T4_M11,T5_M11,U1_M11,ZSPAN_M11,X2_M11,X0_M11,X1_M11
2024-04-12 16:00:00,SystemResetWarning,0830.4,5.00,000.00,023.6,023.1,000.0,031.8,025.4,015.6,0000.0,0005.31,0016.79,0003.34
2024-04-12 16:01:00,SystemResetWarning,0830.4,5.00,000.00,023.6,023.1,000.0,031.9,025.4,015.3,0000.0,0005.19,0016.63,0003.32
2024-04-12 16:02:00,SystemResetWarning,0830.3,5.00,000.00,023.6,023.2,000.0,031.9,025.5,015.4,0000.0,0005.11,0016.41,0003.30
2024-04-12 16:03:00,SystemResetWarning,0830.4,5.00,000.00,023.6,023.2,000.0,031.9,025.5,015.1,0000.0,0005.11,0015.73,0003.30
2024-04-12 16:04:00,SystemResetWarning,0830.4,5.00,000.00,023.7,023.2,000.0,031.9,025.5,015.0,0000.0,0005.12,0014.64,0003.28
2024-04-12 16:05:00,SystemResetWarning,0830.4,5.01,000.00,023.7,023.2,000.0,031.9,025.5,015.3,0000.0,0005.15,0015.20,0003.29
2024-04-12 16:06:00,SystemResetWarning,0830.4,5.00,000.00,023.7,023.2,000.0,031.9,025.5,015.0,0000.0,0005.17,0015.92,0003.29
2024-04-12 16:07:00,SystemResetWarning,0830.4,4.99,000.00,023.7,023.2,000.0,032.0,025.5,014.6,0000.0,0005.18,0016.36,0003.28
2024-04-12 16:08:00,SystemResetWarning,0830.4,4.99,000.00,023.7,023.3,000.0,032.0,025.5,014.6,0000.0,0005.22,0016.59,0003.28
2024-04-12 16:09:00,SystemResetWarning,0830.5,5.00,000.00,023.7,023.3,000.0,032.0,025.5,014.9,0000.0,0005.23,0016.48,0003.26
2024-04-12 16:10:00,SystemResetWarning,0830.4,5.00,000.00,023.8,023.3,000.0,032.0,025.5,015.0,0000.0,0005.26,0016.88,0003.24
2024-04-12 16:11:00,SystemResetWarning,0830.4,5.00,000.00,023.8,023.3,000.0,032.0,025.5,015.1,0000.0,0005.36,0016.91,0003.25
2024-04-12 16:12:00,SystemResetWarning,0830.4,5.01,000.00,023.8,023.3,000.0,032.0,025.5,015.1,0000.0,0005.39,0017.32,0003.25
2024-04-12 16:13:00,SystemResetWarning,0830.4,5.00,000.00,023.8,023.3,000.0,032.0,025.6,015.0,0000.0,0005.40,0017.48,0003.25
2024-04-12 16:14:00,SystemResetWarning,0830.4,4.99,000.00,023.8,023.3,000.0,032.1,025.6,015.1,0000.0,0005.47,0017.41,0003.26
2024-04-12 16:15:00,SystemResetWarning,0830.4,5.00,000.00,023.8,023.3,000.0,032.1,025.6,015.2,0000.0,0005.49,0018.28,0003.27
2024-04-12 16:16:00,SystemResetWarning,0830.4,5.00,000.00,023.8,023.3,000.0,032.1,025.6,015.5,0000.0,0005.50,0018.87,0003.27
2024-04-12 16:17:00,SystemResetWarning,0830.5,5.00,000.00,023.9,023.3,000.0,032.1,025.6,015.7,0000.0,0005.54,0018.64,0003.28
2024-04-12 16:18:00,SystemResetWarning,0830.6,4.99,000.00,023.9,023.3,000.0,032.1,025.6,015.8,0000.0,0005.57,0019.92,0003.32
2024-04-12 16:19:00,SystemResetWarning,0830.6,5.00,000.00,023.9,023.3,000.0,032.1,025.6,015.8,0000.0,0005.59,0020.08,0003.33
2024-04-12 16:20:00,SystemResetWarning,0830.6,5.01,000.00,023.9,023.3,000.0,032.1,025.6,015.6,0000.0,0005.60,0020.16,0003.35
2024-04-12 16:21:00,SystemResetWarning,0830.5,5.00,000.00,023.9,023.3,000.0,032.2,025.6,015.5,0000.0,0005.59,0019.76,0003.37
2024-04-12 16:22:00,SystemResetWarning,0830.4,4.98,000.00,023.9,023.3,000.0,032.2,025.6,015.9,0000.0,0005.59,0019.28,0003.38
2024-04-12 16:23:00,SystemResetWarning,0830.4,5.00,000.00,023.9,023.3,000.0,032.2,025.6,015.7,0000.0,0005.62,0020.12,0003.38
2024-04-12 16:24:00,SystemResetWarning,0830.5,5.00,000.00,023.9,023.3,000.0,032.2,025.7,015.2,0000.0,0005.60,0020.65,0003.38
2024-04-12 16:25:00,SystemResetWarning,0830.6,5.01,000.00,023.9,023.3,000.0,032.2,025.7,015.3,0000.0,0005.55,0020.55,0003.37
2024-04-12 16:26:00,SystemResetWarning,0830.6,5.01,000.00,024.0,023.3,000.0,032.2,025.7,015.0,0000.0,0005.57,0019.60,0003.37
2024-04-12 16:27:00,SystemResetWarning,0830.5,5.00,000.00,024.0,023.4,000.0,032.2,025.7,014.7,0000.0,0005.53,0018.71,0003.37
2024-04-12 16:28:00,SystemResetWarning,0830.4,4.99,000.00,024.0,023.4,000.0,032.3,025.7,015.1,0000.0,0005.48,0018.83,0003.35
2024-04-12 16:29:00,SystemResetWarning,0830.4,5.00,000.00,024.0,023.4,000.0,032.3,025.7,015.4,0000.0,0005.45,0017.25,0003.32
2024-04-12 16:30:00,SystemResetWarning,0830.4,4.99,000.00,024.0,023.4,000.0,032.3,025.8,014.9,0000.0,0005.41,0018.35,0003.30
2024-04-12 16:31:00,SystemResetWarning,0830.5,5.01,000.00,024.0,023.4,000.0,032.3,025.8,014.5,0000.0,0005.33,0019.16,0003.25
2024-04-12 16:32:00,SystemResetWarning,0830.4,5.01,000.00,024.0,023.4,000.0,032.3,025.8,013.9,0000.0,0005.30,0019.80,0003.21
2024-04-12 16:33:00,SystemResetWarning,0830.4,5.01,000.00,024.0,023.4,000.0,032.3,025.8,014.2,0000.0,0005.24,0019.76,0003.17
2024-04-12 16:34:00,SystemResetWarning,0830.4,5.00,000.00,024.1,023.5,000.0,032.3,025.9,014.6,0000.0,0005.17,0019.96,0003.15
2024-04-12 16:35:00,SystemResetWarning,0830.4,4.99,000.00,024.1,023.5,000.0,032.3,025.9,014.8,0000.0,0005.15,0019.79,0003.14
2024-04-12 16:36:00,SystemResetWarning,0830.4,5.00,000.00,024.1,023.5,000.0,032.4,025.9,014.6,0000.0,0005.19,0019.89,0003.13
2024-04-12 16:37:00,SystemResetWarning,0830.5,4.99,000.00,024.1,023.5,000.0,032.4,025.9,014.8,0000.0,0005.12,0020.54,0003.10
2024-04-12 16:38:00,SystemResetWarning,0830.5,5.01,000.00,024.1,023.5,000.0,032.4,025.9,015.1,0000.0,0005.18,0020.40,0003.08
2024-04-12 16:39:00,SystemResetWarning,0830.5,5.01,000.00,024.1,023.5,000.0,032.4,025.9,015.2,0000.0,0005.25,0020.09,0003.06
2024-04-12 16:40:00,SystemResetWarning,0830.5,5.00,000.00,024.1,023.5,000.0,032.4,025.9,015.4,0000.0,0005.25,0020.13,0003.06
2024-04-12 16:41:00,SystemResetWarning,0830.5,5.00,000.00,024.1,023.5,000.0,032.4,025.9,015.5,0000.0,0005.28,0019.38,0003.07
2024-04-12 16:42:00,SystemResetWarning,0830.4,5.00,000.00,024.1,023.5,000.0,032.4,026.0,015.5,0000.0,0005.36,0019.57,0003.10
2024-04-12 16:43:00,SystemResetWarning,0830.4,4.99,000.00,024.2,023.6,000.0,032.4,026.0,015.4,0000.0,0005.38,0020.90,0003.12
2024-04-12 16:44:00,SystemResetWarning,0830.4,5.00,000.00,024.2,023.6,000.0,032.5,026.0,015.2,0000.0,0005.43,0022.12,0003.13
2024-04-12 16:45:00,SystemResetWarning,0830.4,5.01,000.00,024.2,023.6,000.0,032.5,026.0,015.4,0000.0,0005.44,0022.60,0003.13
2024-04-12 16:46:00,SystemResetWarning,0830.4,5.01,000.00,024.2,023.6,000.0,032.5,026.0,015.6,0000.0,0005.47,0021.76,0003.13
2024-04-12 16:47:00,SystemResetWarning,0830.5,5.01,000.00,024.2,023.7,000.0,032.5,026.0,016.1,0000.0,0005.48,0022.71,0003.12
2024-04-12 16:48:00,SystemResetWarning,0830.5,4.99,000.00,024.2,023.7,000.0,032.5,026.0,016.4,0000.0,0005.54,0022.51,0003.14
2024-04-12 16:49:00,SystemResetWarning,0830.4,4.99,000.00,024.2,023.7,000.0,032.5,026.1,016.7,0000.0,0005.56,0023.55,0003.17
2024-04-12 16:50:00,SystemResetWarning,0830.4,5.01,000.00,024.3,023.8,000.0,032.5,026.1,016.1,0000.0,0005.65,0024.54,0003.19
2024-04-12 16:51:00,SystemResetWarning,0830.3,5.01,000.00,024.3,023.8,000.0,032.5,026.1,015.6,0000.0,0005.69,0025.64,0003.20
2024-04-12 16:52:00,SystemResetWarning,0830.3,5.01,000.00,024.3,023.8,000.0,032.6,026.1,015.7,0000.0,0005.69,0026.27,0003.20
2024-04-12 16:53:00,SystemResetWarning,0830.3,5.00,000.00,024.3,023.8,000.0,032.6,026.1,015.8,0000.0,0005.66,0025.06,0003.20
2024-04-12 16:54:00,SystemResetWarning,0830.3,5.00,000.00,024.3,023.8,000.0,032.6,026.1,015.4,0000.0,0005.65,0024.48,0003.18
2024-04-12 16:55:00,SystemResetWarning,0830.3,5.00,000.00,024.3,023.8,000.0,032.6,026.1,016.0,0000.0,0005.57,0024.96,0003.16
2024-04-12 16:56:00,SystemResetWarning,0830.3,4.99,000.00,024.4,023.8,000.0,032.6,026.2,016.1,0000.0,0005.61,0024.51,0003.17
2024-04-12 16:57:00,SystemResetWarning,0830.3,5.00,000.00,024.4,023.9,000.0,032.6,026.2,015.8,0000.0,0005.70,0024.73,0003.17
2024-04-12 16:58:00,SystemResetWarning,0830.3,5.00,000.00,024.4,023.9,000.0,032.6,026.2,015.9,0000.0,0005.66,0023.85,0003.16
2024-04-12 16:59:00,SystemResetWarning,0830.3,5.00,000.00,024.4,023.9,000.0,032.7,026.3,015.9,0000.0,0005.59,0023.88,0003.15
